Casper, WY

11:09 PM MST on February 27, 2017 (GMT -0700)
Natrona County International

Weather History for KCPR - October, 2012

Change the Weather History Date:

Sunday, October 28, 2012

  Actual Average Record
Temperature  
Mean Temperature 44 °F 41 °F  
Max Temperature 59 °F 55 °F 75 °F (1990)
Min Temperature 29 °F 28 °F 7 °F (1991)
Degree Days  
Heating Degree Days 21 24  
Month to date heating degree days 584 542  
Since 1 July heating degree days 733 827  
Cooling Degree Days 0 0  
Month to date cooling degree days 0 0  
Year to date cooling degree days 697 422  
Moisture  
Dew Point 31 °F    
Average Humidity 61    
Maximum Humidity 85    
Minimum Humidity 36    
Precipitation  
Precipitation 0.00 in 0.03 in 0.99 in (1998)
Month to date precipitation 0.56 1.01  
Year to date precipitation 7.00 11.17  
Snow  
Snow 0.00 in 0.30 in - ()
Month to date snowfall 5.2 6.5  
Since 1 July snowfall 5.2 8.3  
Since 1 September snowfall 5.2 8.3  
Snow Depth 0.00 in    
Sea Level Pressure  
Sea Level Pressure 29.98 in    
Wind  
Wind Speed 15 mph (SW)    
Max Wind Speed 30 mph    
Max Gust Speed 40 mph    
Visibility 10 miles    
Events      
T = Trace of Precipitation, MM = Missing Value Source: NWS Daily Summary

Daily Weather History Graph

Daily Weather History Graph

Search for Another Location

Airport or City:

Trip Planner

Search our weather history database for the weather conditions in past years. The results will help you decide how hot, cold, wet, or windy it might be!

Date:

Astronomy

Oct. 28, 2012 Rise Set
Actual Time 7:35 AM MDT 6:02 PM MDT
Civil Twilight 7:06 AM MDT 6:31 PM MDT
Nautical Twilight 6:33 AM MDT 7:05 PM MDT
Astronomical Twilight 6:00 AM MDT 7:38 PM MDT
Moon 5:22 PM MDT 6:31 AM MDT
Length of Visible Light 11h 25m
Length of Day
10h 26m
Waxing Gibbous, 99% of the Moon is Illuminated
Oct 28
Waxing Gibbous
Oct 29
Full
Nov 6
Last Quarter
Nov 13
New
Nov 20
First Quarter

Hourly Weather History & Observations

Time (MDT) Temp. Windchill Dew Point Humidity Pressure Visibility Wind Dir Wind Speed Gust Speed Precip Events Conditions
12:53 AM 30.0 °F 23.2 °F 25.0 °F 82% 30.07 in 10.0 mi West 6.9 mph - N/A   Partly Cloudy
1:53 AM 32.0 °F 24.2 °F 25.0 °F 75% 30.03 in 10.0 mi SSW 9.2 mph - N/A   Clear
2:53 AM 28.9 °F 20.4 °F 24.1 °F 82% 30.05 in 10.0 mi West 9.2 mph - N/A   Scattered Clouds
3:53 AM 32.0 °F 23.0 °F 25.0 °F 75% 30.01 in 10.0 mi SW 11.5 mph - N/A   Clear
4:53 AM 34.0 °F 27.2 °F 26.1 °F 73% 30.02 in 10.0 mi SW 8.1 mph - N/A   Clear
5:53 AM 36.0 °F 28.0 °F 27.0 °F 70% 30.02 in 10.0 mi SW 11.5 mph - N/A   Clear
6:53 AM 37.0 °F 28.1 °F 27.0 °F 67% 30.04 in 10.0 mi SW 15.0 mph - N/A   Clear
7:53 AM 39.0 °F 31.4 °F 28.0 °F 65% 30.03 in 10.0 mi SW 12.7 mph - N/A   Clear
8:53 AM 41.0 °F 32.2 °F 28.9 °F 62% 30.02 in 10.0 mi SW 18.4 mph - N/A   Partly Cloudy
9:53 AM 43.0 °F 33.1 °F 30.0 °F 60% 30.00 in 10.0 mi SW 26.5 mph 32.2 mph N/A   Overcast
10:53 AM 46.4 °F 38.7 °F 30.2 °F 53% 29.99 in 10.0 mi SW 20.7 mph 33.4 mph N/A   Scattered Clouds
11:53 AM 51.1 °F - 30.9 °F 46% 29.95 in 10.0 mi SW 29.9 mph 40.3 mph N/A   Clear
12:53 PM 54.0 °F - 32.0 °F 43% 29.94 in 10.0 mi SW 26.5 mph 34.5 mph N/A   Clear
1:53 PM 55.9 °F - 30.9 °F 39% 29.93 in 10.0 mi WSW 26.5 mph 34.5 mph N/A   Clear
2:53 PM 57.0 °F - 32.0 °F 39% 29.93 in 10.0 mi WSW 20.7 mph 28.8 mph N/A   Clear
3:53 PM 59.0 °F - 32.0 °F 36% 29.92 in 10.0 mi WSW 18.4 mph 24.2 mph N/A   Clear
4:53 PM 57.0 °F - 32.0 °F 39% 29.92 in 10.0 mi SW 18.4 mph 25.3 mph N/A   Clear
5:53 PM 52.0 °F - 34.0 °F 50% 29.94 in 10.0 mi SW 12.7 mph - N/A   Clear
6:53 PM 48.0 °F - 36.0 °F 63% 29.96 in 10.0 mi WSW 10.4 mph 19.6 mph N/A   Clear
7:53 PM 46.0 °F 41.0 °F 36.0 °F 68% 29.96 in 10.0 mi SSW 10.4 mph - N/A   Clear
8:53 PM 48.0 °F - 36.0 °F 63% 29.96 in 10.0 mi SW 12.7 mph - N/A   Clear
9:53 PM 46.0 °F 40.2 °F 36.0 °F 68% 29.98 in 10.0 mi SW 12.7 mph - N/A   Clear
10:53 PM 48.0 °F - 34.0 °F 58% 29.97 in 10.0 mi SW 15.0 mph - N/A   Clear
11:53 PM 48.0 °F - 33.1 °F 56% 29.96 in 10.0 mi SSW 6.9 mph - N/A   Overcast